Time,TemperatureF,DewpointF,PressureIn,WindDirection,WindDirectionDegrees,WindSpeedMPH,WindSpeedGustMPH,Humidity,HourlyPrecipIn,Conditions,Clouds,dailyrainin,SoftwareType,DateUTC
2013-04-27 00:01:00,49.6,29.0,30.00,South,180,1.4,2.5,45,0.00,,,0.00,WUHU21623XXSP,2013-04-27 05:01:00,
2013-04-27 00:06:00,50.2,29.6,30.01,South,180,2.0,2.7,45,0.00,,,0.00,WUHU21623XXSP,2013-04-27 05:06:00,
2013-04-27 00:11:00,50.4,29.7,30.01,South,180,2.2,4.0,45,0.00,,,0.00,WUHU21623XXSP,2013-04-27 05:11:00,
2013-04-27 00:16:00,49.1,29.1,30.00,South,180,0.0,4.3,46,0.00,,,0.00,WUHU21623XXSP,2013-04-27 05:16:00,
2013-04-27 00:21:00,45.7,28.6,30.01,South,180,2.0,4.3,51,0.00,,,0.00,WUHU21623XXSP,2013-04-27 05:21:00,
2013-04-27 00:26:00,45.3,28.2,30.01,South,180,2.2,2.5,51,0.00,,,0.00,WUHU21623XXSP,2013-04-27 05:26:00,
2013-04-27 00:31:00,46.0,28.9,30.01,South,180,0.5,2.5,51,0.00,,,0.00,WUHU21623XXSP,2013-04-27 05:31:00,
2013-04-27 00:36:00,45.3,28.7,30.01,South,180,0.3,2.0,52,0.00,,,0.00,WUHU21623XXSP,2013-04-27 05:36:00,
2013-04-27 00:41:00,45.0,28.8,30.01,South,180,1.3,1.8,53,0.00,,,0.00,WUHU21623XXSP,2013-04-27 05:41:00,
2013-04-27 00:46:00,44.6,28.9,30.01,South,180,0.6,1.8,54,0.00,,,0.00,WUHU21623XXSP,2013-04-27 05:46:00,
2013-04-27 00:51:00,44.4,28.3,30.01,South,180,1.1,1.6,53,0.00,,,0.00,WUHU21623XXSP,2013-04-27 05:51:00,
2013-04-27 00:56:00,45.0,28.4,30.01,South,180,0.2,1.6,52,0.00,,,0.00,WUHU21623XXSP,2013-04-27 05:56:00,
2013-04-27 01:01:00,44.4,28.3,30.01,South,180,1.3,1.3,53,0.00,,,0.00,WUHU21623XXSP,2013-04-27 06:01:00,
2013-04-27 01:06:00,44.2,28.1,30.01,South,180,0.9,1.3,53,0.00,,,0.00,WUHU21623XXSP,2013-04-27 06:06:00,
2013-04-27 01:11:00,45.3,28.7,30.01,South,180,2.0,2.0,52,0.00,,,0.00,WUHU21623XXSP,2013-04-27 06:11:00,
2013-04-27 01:16:00,44.1,28.0,30.01,South,180,1.9,2.7,53,0.00,,,0.00,WUHU21623XXSP,2013-04-27 06:16:00,
2013-04-27 01:21:00,44.4,28.3,30.01,South,180,0.2,2.7,53,0.00,,,0.00,WUHU21623XXSP,2013-04-27 06:21:00,
2013-04-27 01:26:00,44.4,28.3,30.00,South,180,1.8,1.8,53,0.00,,,0.00,WUHU21623XXSP,2013-04-27 06:26:00,
2013-04-27 01:31:00,45.5,28.9,30.00,South,180,0.3,2.0,52,0.00,,,0.00,WUHU21623XXSP,2013-04-27 06:31:00,
2013-04-27 01:36:00,44.4,28.3,30.00,South,180,0.4,2.0,53,0.00,,,0.00,WUHU21623XXSP,2013-04-27 06:36:00,
2013-04-27 01:41:00,43.9,28.3,30.00,South,180,2.1,2.7,54,0.00,,,0.00,WUHU21623XXSP,2013-04-27 06:41:00,
2013-04-27 01:46:00,42.6,27.9,30.00,South,180,1.6,2.7,56,0.00,,,0.00,WUHU21623XXSP,2013-04-27 06:46:00,
2013-04-27 01:51:00,45.0,28.8,30.00,SSE,157,2.7,3.1,53,0.00,,,0.00,WUHU21623XXSP,2013-04-27 06:51:00,
2013-04-27 01:56:00,45.0,28.8,30.00,SSE,157,0.9,3.1,53,0.00,,,0.00,WUHU21623XXSP,2013-04-27 06:56:00,
2013-04-27 02:01:00,41.5,27.8,30.00,SSE,157,0.0,2.9,58,0.00,,,0.00,WUHU21623XXSP,2013-04-27 07:01:00,
2013-04-27 02:06:00,42.1,28.3,30.00,SSE,168,1.2,2.5,58,0.00,,,0.00,WUHU21623XXSP,2013-04-27 07:06:00,
2013-04-27 02:11:00,41.4,27.6,30.00,South,180,0.0,2.5,58,0.00,,,0.00,WUHU21623XXSP,2013-04-27 07:11:00,
2013-04-27 02:16:00,41.5,28.3,30.01,SSE,157,2.0,2.0,59,0.00,,,0.00,WUHU21623XXSP,2013-04-27 07:16:00,
2013-04-27 02:21:00,43.5,28.8,30.00,SSE,157,1.3,2.0,56,0.00,,,0.00,WUHU21623XXSP,2013-04-27 07:21:00,
2013-04-27 02:26:00,44.8,29.1,30.00,SSE,157,1.6,2.0,54,0.00,,,0.00,WUHU21623XXSP,2013-04-27 07:26:00,
2013-04-27 02:31:00,45.5,29.3,30.00,SSE,157,1.9,2.7,53,0.00,,,0.00,WUHU21623XXSP,2013-04-27 07:31:00,
2013-04-27 02:36:00,45.5,28.9,30.00,SSE,157,2.7,2.7,52,0.00,,,0.00,WUHU21623XXSP,2013-04-27 07:36:00,
2013-04-27 02:41:00,45.0,29.3,29.99,SSE,157,2.4,3.1,54,0.00,,,0.00,WUHU21623XXSP,2013-04-27 07:41:00,
2013-04-27 02:46:00,45.0,29.3,29.99,SSE,157,2.7,3.1,54,0.00,,,0.00,WUHU21623XXSP,2013-04-27 07:46:00,
2013-04-27 02:51:00,44.8,29.1,29.99,SSE,157,2.9,3.4,54,0.00,,,0.00,WUHU21623XXSP,2013-04-27 07:51:00,
2013-04-27 02:56:00,43.7,28.5,29.99,SSE,157,2.8,3.4,55,0.00,,,0.00,WUHU21623XXSP,2013-04-27 07:56:00,
2013-04-27 03:01:00,44.8,29.1,29.98,SSE,157,3.4,4.3,54,0.00,,,0.00,WUHU21623XXSP,2013-04-27 08:01:00,
2013-04-27 03:06:00,45.0,29.3,29.99,SSE,157,2.2,4.3,54,0.00,,,0.00,WUHU21623XXSP,2013-04-27 08:06:00,
2013-04-27 03:11:00,45.0,29.3,29.99,SSE,157,2.2,2.9,54,0.00,,,0.00,WUHU21623XXSP,2013-04-27 08:11:00,
2013-04-27 03:16:00,44.4,28.8,29.99,SSE,157,1.8,2.7,54,0.00,,,0.00,WUHU21623XXSP,2013-04-27 08:16:00,
2013-04-27 03:21:00,43.7,28.5,29.99,SSE,157,2.9,2.9,55,0.00,,,0.00,WUHU21623XXSP,2013-04-27 08:21:00,
2013-04-27 03:26:00,43.7,28.5,29.99,SSE,157,2.5,3.1,55,0.00,,,0.00,WUHU21623XXSP,2013-04-27 08:26:00,
2013-04-27 03:31:00,44.2,29.0,29.99,SSE,157,1.8,3.1,55,0.00,,,0.00,WUHU21623XXSP,2013-04-27 08:31:00,
2013-04-27 03:36:00,44.2,29.0,29.99,SSE,157,2.0,2.9,55,0.00,,,0.00,WUHU21623XXSP,2013-04-27 08:36:00,
2013-04-27 03:41:00,44.1,28.9,29.99,SSE,157,1.7,2.5,55,0.00,,,0.00,WUHU21623XXSP,2013-04-27 08:41:00,
2013-04-27 03:46:00,44.4,28.8,29.99,SSE,157,2.5,2.5,54,0.00,,,0.00,WUHU21623XXSP,2013-04-27 08:46:00,
2013-04-27 03:51:00,44.8,29.1,29.99,SSE,157,2.5,3.4,54,0.00,,,0.00,WUHU21623XXSP,2013-04-27 08:51:00,
2013-04-27 03:56:00,45.0,29.3,29.99,SSE,157,2.5,3.4,54,0.00,,,0.00,WUHU21623XXSP,2013-04-27 08:56:00,
2013-04-27 04:01:00,45.3,29.1,29.98,SSE,157,2.9,3.6,53,0.00,,,0.00,WUHU21623XXSP,2013-04-27 09:01:00,
2013-04-27 04:06:00,45.5,29.3,29.99,SSE,157,2.8,3.6,53,0.00,,,0.00,WUHU21623XXSP,2013-04-27 09:06:00,
2013-04-27 04:11:00,45.5,29.3,29.98,SSE,157,2.7,3.4,53,0.00,,,0.00,WUHU21623XXSP,2013-04-27 09:11:00,
2013-04-27 04:16:00,44.1,28.9,29.98,SSE,157,2.7,3.4,55,0.00,,,0.00,WUHU21623XXSP,2013-04-27 09:16:00,
2013-04-27 04:21:00,43.0,28.7,29.98,SSE,157,3.1,3.4,57,0.00,,,0.00,WUHU21623XXSP,2013-04-27 09:21:00,
2013-04-27 04:26:00,43.9,28.7,29.99,SSE,157,3.2,3.6,55,0.00,,,0.00,WUHU21623XXSP,2013-04-27 09:26:00,
2013-04-27 04:31:00,44.2,29.0,29.98,SSE,157,3.1,3.6,55,0.00,,,0.00,WUHU21623XXSP,2013-04-27 09:31:00,
2013-04-27 04:36:00,44.1,28.9,29.98,SSE,157,2.6,3.6,55,0.00,,,0.00,WUHU21623XXSP,2013-04-27 09:36:00,
2013-04-27 04:41:00,44.1,28.9,29.98,SSE,157,2.5,3.4,55,0.00,,,0.00,WUHU21623XXSP,2013-04-27 09:41:00,
2013-04-27 04:46:00,44.2,29.0,29.98,SSE,157,2.9,3.4,55,0.00,,,0.00,WUHU21623XXSP,2013-04-27 09:46:00,
2013-04-27 04:51:00,43.9,28.7,29.98,SSE,157,3.4,3.4,55,0.00,,,0.00,WUHU21623XXSP,2013-04-27 09:51:00,
2013-04-27 04:56:00,43.0,28.7,29.98,SSE,157,3.1,3.4,57,0.00,,,0.00,WUHU21623XXSP,2013-04-27 09:56:00,
2013-04-27 05:01:00,41.5,28.3,29.98,SSE,157,2.7,3.4,59,0.00,,,0.00,WUHU21623XXSP,2013-04-27 10:01:00,
2013-04-27 05:06:00,39.4,27.4,29.98,SSE,157,2.1,3.4,62,0.00,,,0.00,WUHU21623XXSP,2013-04-27 10:06:00,
2013-04-27 05:11:00,38.8,27.2,29.98,SSE,157,2.5,2.9,63,0.00,,,0.00,WUHU21623XXSP,2013-04-27 10:11:00,
2013-04-27 05:16:00,39.4,27.7,29.98,SSE,157,2.9,2.9,63,0.00,,,0.00,WUHU21623XXSP,2013-04-27 10:16:00,
2013-04-27 05:21:00,39.7,27.7,29.97,SSE,157,3.1,3.4,62,0.00,,,0.00,WUHU21623XXSP,2013-04-27 10:21:00,
2013-04-27 05:26:00,39.6,27.5,29.98,SSE,157,3.4,3.6,62,0.00,,,0.00,WUHU21623XXSP,2013-04-27 10:26:00,
2013-04-27 05:31:00,40.1,27.7,29.98,SSE,157,3.4,3.6,61,0.00,,,0.00,WUHU21623XXSP,2013-04-27 10:31:00,
2013-04-27 05:36:00,40.8,27.6,29.98,SSE,157,3.6,3.8,59,0.00,,,0.00,WUHU21623XXSP,2013-04-27 10:36:00,
2013-04-27 05:41:00,41.2,27.9,29.98,SSE,157,3.6,4.3,59,0.00,,,0.00,WUHU21623XXSP,2013-04-27 10:41:00,
2013-04-27 05:46:00,41.7,27.5,29.99,SSE,157,3.4,4.3,57,0.00,,,0.00,WUHU21623XXSP,2013-04-27 10:46:00,
2013-04-27 05:51:00,42.1,27.4,29.98,SSE,167,3.2,4.3,56,0.00,,,0.00,WUHU21623XXSP,2013-04-27 10:51:00,
2013-04-27 05:56:00,43.2,28.0,29.98,SSE,157,3.6,4.9,55,0.00,,,0.00,WUHU21623XXSP,2013-04-27 10:56:00,
2013-04-27 06:01:00,43.0,27.4,29.98,SSE,157,3.3,5.1,54,0.00,,,0.00,WUHU21623XXSP,2013-04-27 11:01:00,
2013-04-27 06:06:00,43.0,27.4,29.98,SSE,157,3.6,5.1,54,0.00,,,0.00,WUHU21623XXSP,2013-04-27 11:06:00,
2013-04-27 06:11:00,43.0,27.4,29.98,SSE,157,2.6,4.3,54,0.00,,,0.00,WUHU21623XXSP,2013-04-27 11:11:00,
2013-04-27 06:16:00,42.4,27.3,29.98,SSE,157,2.3,4.3,55,0.00,,,0.00,WUHU21623XXSP,2013-04-27 11:16:00,
2013-04-27 06:21:00,42.1,27.4,29.98,SSE,157,2.5,3.4,56,0.00,,,0.00,WUHU21623XXSP,2013-04-27 11:21:00,
2013-04-27 06:26:00,42.1,27.4,29.98,SSE,157,2.7,3.1,56,0.00,,,0.00,WUHU21623XXSP,2013-04-27 11:26:00,
2013-04-27 06:31:00,41.9,27.3,29.98,SSE,157,3.3,4.3,56,0.00,,,0.00,WUHU21623XXSP,2013-04-27 11:31:00,
2013-04-27 06:36:00,42.4,27.8,29.98,SSE,157,3.6,4.5,56,0.00,,,0.00,WUHU21623XXSP,2013-04-27 11:36:00,
2013-04-27 06:41:00,42.6,27.5,29.98,SSE,157,3.6,4.5,55,0.00,,,0.00,WUHU21623XXSP,2013-04-27 11:41:00,
2013-04-27 06:46:00,43.0,27.8,29.97,SSE,157,4.0,4.9,55,0.00,,,0.00,WUHU21623XXSP,2013-04-27 11:46:00,
2013-04-27 06:51:00,43.2,27.6,29.97,SSE,157,4.3,4.9,54,0.00,,,0.00,WUHU21623XXSP,2013-04-27 11:51:00,
2013-04-27 06:56:00,43.3,27.8,29.97,SSE,157,4.0,4.9,54,0.00,,,0.00,WUHU21623XXSP,2013-04-27 11:56:00,
2013-04-27 07:01:00,43.7,28.1,29.97,SSE,154,4.2,6.3,54,0.00,,,0.00,WUHU21623XXSP,2013-04-27 12:01:00,
2013-04-27 07:06:00,44.2,28.1,29.97,SSE,157,3.9,6.3,53,0.00,,,0.00,WUHU21623XXSP,2013-04-27 12:06:00,
2013-04-27 07:11:00,44.4,28.3,29.97,SSE,157,4.0,6.3,53,0.00,,,0.00,WUHU21623XXSP,2013-04-27 12:11:00,
2013-04-27 07:16:00,45.0,28.4,29.97,SSE,157,4.2,5.8,52,0.00,,,0.00,WUHU21623XXSP,2013-04-27 12:16:00,
2013-04-27 07:21:00,45.5,28.9,29.97,SSE,157,3.9,5.8,52,0.00,,,0.00,WUHU21623XXSP,2013-04-27 12:21:00,
2013-04-27 07:26:00,46.0,28.9,29.98,SSE,154,4.1,6.0,51,0.00,,,0.00,WUHU21623XXSP,2013-04-27 12:26:00,
2013-04-27 07:31:00,46.6,28.9,29.98,SSE,157,4.3,6.5,50,0.00,,,0.00,WUHU21623XXSP,2013-04-27 12:31:00,
2013-04-27 07:36:00,47.1,28.9,29.98,SSE,157,3.6,6.5,49,0.00,,,0.00,WUHU21623XXSP,2013-04-27 12:36:00,
2013-04-27 07:41:00,47.7,29.4,29.98,SSE,157,3.4,5.4,49,0.00,,,0.00,WUHU21623XXSP,2013-04-27 12:41:00,
2013-04-27 07:46:00,48.0,29.1,29.98,SSE,149,3.8,5.1,48,0.00,,,0.00,WUHU21623XXSP,2013-04-27 12:46:00,
2013-04-27 07:51:00,48.6,29.6,29.98,SSE,157,5.6,7.8,48,0.00,,,0.00,WUHU21623XXSP,2013-04-27 12:51:00,
2013-04-27 07:56:00,48.9,30.0,29.97,SSE,157,3.8,7.8,48,0.00,,,0.00,WUHU21623XXSP,2013-04-27 12:56:00,
2013-04-27 08:01:00,49.3,29.8,29.98,SSE,157,3.6,5.6,47,0.00,,,0.00,WUHU21623XXSP,2013-04-27 13:01:00,
2013-04-27 08:06:00,50.2,30.1,29.98,SSE,157,3.6,5.6,46,0.00,,,0.00,WUHU21623XXSP,2013-04-27 13:06:00,
2013-04-27 08:11:00,50.9,30.2,29.98,SSE,149,3.5,4.9,45,0.00,,,0.00,WUHU21623XXSP,2013-04-27 13:11:00,
2013-04-27 08:16:00,51.6,30.8,29.98,SE,135,3.6,4.9,45,0.00,,,0.00,WUHU21623XXSP,2013-04-27 13:16:00,
2013-04-27 08:21:00,52.2,30.8,29.98,South,180,3.8,6.5,44,0.00,,,0.00,WUHU21623XXSP,2013-04-27 13:21:00,
2013-04-27 08:26:00,52.7,30.7,29.97,SSE,157,3.2,6.5,43,0.00,,,0.00,WUHU21623XXSP,2013-04-27 13:26:00,
2013-04-27 08:31:00,53.8,31.1,29.97,SSE,165,2.5,6.9,42,0.00,,,0.00,WUHU21623XXSP,2013-04-27 13:31:00,
2013-04-27 08:36:00,54.7,31.4,29.97,South,180,6.0,6.9,41,0.00,,,0.00,WUHU21623XXSP,2013-04-27 13:36:00,
2013-04-27 08:41:00,55.6,31.6,29.97,SSW,192,5.5,8.7,40,0.00,,,0.00,WUHU21623XXSP,2013-04-27 13:41:00,
2013-04-27 08:48:00,55.8,31.8,29.97,SSW,196,5.6,8.9,40,0.00,,,0.00,WUHU21623XXSP,2013-04-27 13:48:00,
2013-04-27 08:53:00,56.8,32.1,29.97,SSW,210,5.2,8.5,39,0.00,,,0.00,WUHU21623XXSP,2013-04-27 13:53:00,
2013-04-27 08:58:00,57.6,32.0,29.97,SSE,157,6.9,8.1,38,0.00,,,0.00,WUHU21623XXSP,2013-04-27 13:58:00,
2013-04-27 09:03:00,57.4,32.5,29.97,SSE,159,2.6,8.3,39,0.00,,,0.00,WUHU21623XXSP,2013-04-27 14:03:00,
2013-04-27 09:08:00,57.6,32.0,29.97,SSE,157,5.4,8.3,38,0.00,,,0.00,WUHU21623XXSP,2013-04-27 14:08:00,
2013-04-27 09:13:00,57.4,31.8,29.97,South,185,2.3,7.8,38,0.00,,,0.00,WUHU21623XXSP,2013-04-27 14:13:00,
2013-04-27 09:18:00,58.1,32.5,29.97,SSW,209,5.8,9.4,38,0.00,,,0.00,WUHU21623XXSP,2013-04-27 14:18:00,
2013-04-27 09:23:00,58.8,32.4,29.97,SSW,207,7.8,10.3,37,0.00,,,0.00,WUHU21623XXSP,2013-04-27 14:23:00,
2013-04-27 09:28:00,58.6,33.0,29.97,SSW,207,7.1,10.3,38,0.00,,,0.00,WUHU21623XXSP,2013-04-27 14:28:00,
2013-04-27 09:33:00,58.8,32.4,29.97,South,180,7.4,10.1,37,0.00,,,0.00,WUHU21623XXSP,2013-04-27 14:33:00,
2013-04-27 09:38:00,59.0,32.6,29.96,SSW,203,4.5,10.1,37,0.00,,,0.00,WUHU21623XXSP,2013-04-27 14:38:00,
2013-04-27 09:43:00,59.9,32.7,29.96,SW,225,9.8,10.1,36,0.00,,,0.00,WUHU21623XXSP,2013-04-27 14:43:00,
2013-04-27 09:48:00,60.1,32.8,29.96,SW,225,7.4,9.8,36,0.00,,,0.00,WUHU21623XXSP,2013-04-27 14:48:00,
2013-04-27 09:53:00,60.4,33.1,29.96,SW,225,8.1,9.4,36,0.00,,,0.00,WUHU21623XXSP,2013-04-27 14:53:00,
2013-04-27 09:58:00,61.3,33.2,29.96,SSW,208,7.9,10.1,35,0.00,,,0.00,WUHU21623XXSP,2013-04-27 14:58:00,
2013-04-27 10:03:00,61.2,33.0,29.96,SW,225,6.3,10.1,35,0.00,,,0.00,WUHU21623XXSP,2013-04-27 15:03:00,
2013-04-27 10:08:00,61.3,33.2,29.96,South,178,7.1,8.7,35,0.00,,,0.00,WUHU21623XXSP,2013-04-27 15:08:00,
2013-04-27 10:13:00,61.2,33.8,29.96,SSW,202,3.9,8.7,36,0.00,,,0.00,WUHU21623XXSP,2013-04-27 15:13:00,
2013-04-27 10:18:00,61.2,33.8,29.96,South,175,3.7,8.3,36,0.00,,,0.00,WUHU21623XXSP,2013-04-27 15:18:00,
2013-04-27 10:23:00,61.5,33.4,29.95,SE,135,10.5,11.6,35,0.00,,,0.00,WUHU21623XXSP,2013-04-27 15:23:00,
2013-04-27 10:28:00,61.9,33.7,29.95,SSW,202,8.7,11.6,35,0.00,,,0.00,WUHU21623XXSP,2013-04-27 15:28:00,
2013-04-27 10:33:00,62.8,34.5,29.95,SW,225,3.8,10.1,35,0.00,,,0.00,WUHU21623XXSP,2013-04-27 15:33:00,
2013-04-27 10:38:00,62.2,33.3,29.95,South,180,5.6,9.2,34,0.00,,,0.00,WUHU21623XXSP,2013-04-27 15:38:00,
2013-04-27 10:43:00,62.4,34.2,29.95,SW,225,6.0,10.5,35,0.00,,,0.00,WUHU21623XXSP,2013-04-27 15:43:00,
2013-04-27 10:48:00,63.5,35.1,29.95,SW,219,3.8,11.4,35,0.00,,,0.00,WUHU21623XXSP,2013-04-27 15:48:00,
2013-04-27 10:53:00,64.6,35.4,29.95,South,180,3.6,11.4,34,0.00,,,0.00,WUHU21623XXSP,2013-04-27 15:53:00,
2013-04-27 10:58:00,64.6,34.7,29.95,SW,225,8.1,8.1,33,0.00,,,0.00,WUHU21623XXSP,2013-04-27 15:58:00,
2013-04-27 11:03:00,63.5,34.4,29.95,SE,135,6.9,13.4,34,0.00,,,0.00,WUHU21623XXSP,2013-04-27 16:03:00,
2013-04-27 11:08:00,63.5,34.4,29.95,SSE,168,6.5,13.4,34,0.00,,,0.00,WUHU21623XXSP,2013-04-27 16:08:00,
2013-04-27 11:13:00,63.1,34.8,29.95,South,191,6.2,12.8,35,0.00,,,0.00,WUHU21623XXSP,2013-04-27 16:13:00,
2013-04-27 11:18:00,63.7,34.6,29.95,South,179,6.0,12.8,34,0.00,,,0.00,WUHU21623XXSP,2013-04-27 16:18:00,
2013-04-27 11:23:00,64.2,35.8,29.95,SSW,211,4.9,10.3,35,0.00,,,0.00,WUHU21623XXSP,2013-04-27 16:23:00,
2013-04-27 11:28:00,64.0,35.6,29.95,SSE,157,9.8,9.8,35,0.00,,,0.00,WUHU21623XXSP,2013-04-27 16:28:00,
2013-04-27 11:33:00,63.7,34.6,29.95,South,174,6.0,9.8,34,0.00,,,0.00,WUHU21623XXSP,2013-04-27 16:33:00,
2013-04-27 11:38:00,64.6,34.7,29.95,SSW,196,7.2,13.0,33,0.00,,,0.00,WUHU21623XXSP,2013-04-27 16:38:00,
2013-04-27 11:43:00,64.8,34.8,29.95,SSE,157,7.2,13.0,33,0.00,,,0.00,WUHU21623XXSP,2013-04-27 16:43:00,
2013-04-27 11:48:00,64.0,34.9,29.95,South,181,7.0,14.8,34,0.00,,,0.00,WUHU21623XXSP,2013-04-27 16:48:00,
2013-04-27 11:53:00,65.3,35.3,29.94,SE,135,4.9,14.8,33,0.00,,,0.00,WUHU21623XXSP,2013-04-27 16:53:00,
2013-04-27 11:58:00,64.9,35.0,29.94,SSE,165,6.2,8.5,33,0.00,,,0.00,WUHU21623XXSP,2013-04-27 16:58:00,
2013-04-27 12:03:00,65.3,35.3,29.94,SSE,157,7.2,11.2,33,0.00,,,0.00,WUHU21623XXSP,2013-04-27 17:03:00,
2013-04-27 12:08:00,64.8,34.8,29.94,SW,214,7.4,12.1,33,0.00,,,0.00,WUHU21623XXSP,2013-04-27 17:08:00,
2013-04-27 12:13:00,65.5,35.5,29.93,SW,223,2.2,12.1,33,0.00,,,0.00,WUHU21623XXSP,2013-04-27 17:13:00,
2013-04-27 12:18:00,66.0,36.0,29.93,South,184,4.9,7.6,33,0.00,,,0.00,WUHU21623XXSP,2013-04-27 17:18:00,
2013-04-27 12:23:00,65.8,35.1,29.93,South,191,6.7,10.7,32,0.00,,,0.00,WUHU21623XXSP,2013-04-27 17:23:00,
2013-04-27 12:28:00,65.5,34.8,29.93,SSW,203,6.5,11.0,32,0.00,,,0.00,WUHU21623XXSP,2013-04-27 17:28:00,
2013-04-27 12:33:00,66.0,35.3,29.92,SSE,157,5.8,11.0,32,0.00,,,0.00,WUHU21623XXSP,2013-04-27 17:33:00,
2013-04-27 12:38:00,66.0,34.5,29.92,SW,215,8.4,10.5,31,0.00,,,0.00,WUHU21623XXSP,2013-04-27 17:38:00,
2013-04-27 12:43:00,65.7,34.9,29.92,SSW,211,7.2,11.6,32,0.00,,,0.00,WUHU21623XXSP,2013-04-27 17:43:00,
2013-04-27 12:48:00,65.8,35.1,29.91,South,178,5.5,11.6,32,0.00,,,0.00,WUHU21623XXSP,2013-04-27 17:48:00,
2013-04-27 12:53:00,66.0,36.0,29.91,SSE,168,2.8,8.5,33,0.00,,,0.00,WUHU21623XXSP,2013-04-27 17:53:00,
2013-04-27 12:58:00,66.0,35.3,29.91,SSW,192,6.4,8.5,32,0.00,,,0.00,WUHU21623XXSP,2013-04-27 17:58:00,
2013-04-27 13:03:00,65.8,35.1,29.91,SSW,202,7.8,11.2,32,0.00,,,0.00,WUHU21623XXSP,2013-04-27 18:03:00,
2013-04-27 13:08:00,65.8,35.1,29.91,South,180,10.7,11.2,32,0.00,,,0.00,WUHU21623XXSP,2013-04-27 18:08:00,
2013-04-27 13:13:00,65.8,34.4,29.90,SSE,161,6.8,10.7,31,0.00,,,0.00,WUHU21623XXSP,2013-04-27 18:13:00,
2013-04-27 13:18:00,65.8,34.4,29.90,SSW,195,8.0,12.3,31,0.00,,,0.00,WUHU21623XXSP,2013-04-27 18:18:00,
2013-04-27 13:23:00,66.4,34.8,29.90,SSW,209,5.1,12.3,31,0.00,,,0.00,WUHU21623XXSP,2013-04-27 18:23:00,
2013-04-27 13:28:00,65.8,35.1,29.89,SSE,157,5.4,12.8,32,0.00,,,0.00,WUHU21623XXSP,2013-04-27 18:28:00,
2013-04-27 13:33:00,66.4,34.8,29.89,South,180,8.3,12.8,31,0.00,,,0.00,WUHU21623XXSP,2013-04-27 18:33:00,
2013-04-27 13:38:00,66.2,34.7,29.89,South,172,5.3,10.7,31,0.00,,,0.00,WUHU21623XXSP,2013-04-27 18:38:00,
2013-04-27 13:43:00,66.4,34.1,29.89,South,176,7.3,10.3,30,0.00,,,0.00,WUHU21623XXSP,2013-04-27 18:43:00,
2013-04-27 13:48:00,66.6,35.0,29.89,SSW,208,6.8,13.0,31,0.00,,,0.00,WUHU21623XXSP,2013-04-27 18:48:00,
2013-04-27 13:53:00,66.6,35.0,29.88,SSW,202,7.8,13.0,31,0.00,,,0.00,WUHU21623XXSP,2013-04-27 18:53:00,
2013-04-27 13:58:00,66.0,34.5,29.88,SSE,164,8.8,12.1,31,0.00,,,0.00,WUHU21623XXSP,2013-04-27 18:58:00,
2013-04-27 14:03:00,66.0,34.5,29.88,SE,135,7.6,12.1,31,0.00,,,0.00,WUHU21623XXSP,2013-04-27 19:03:00,
2013-04-27 14:08:00,65.7,34.9,29.88,South,180,8.5,12.8,32,0.00,,,0.00,WUHU21623XXSP,2013-04-27 19:08:00,
2013-04-27 14:13:00,65.8,34.4,29.88,SSE,157,6.5,12.8,31,0.00,,,0.00,WUHU21623XXSP,2013-04-27 19:13:00,
2013-04-27 14:18:00,66.0,34.5,29.88,SE,143,6.1,11.4,31,0.00,,,0.00,WUHU21623XXSP,2013-04-27 19:18:00,
2013-04-27 14:23:00,66.0,35.3,29.87,South,180,7.6,10.1,32,0.00,,,0.00,WUHU21623XXSP,2013-04-27 19:23:00,
2013-04-27 14:28:00,66.0,35.3,29.87,South,170,6.0,11.4,32,0.00,,,0.00,WUHU21623XXSP,2013-04-27 19:28:00,
2013-04-27 14:33:00,66.4,35.6,29.87,SSE,157,7.2,13.2,32,0.00,,,0.00,WUHU21623XXSP,2013-04-27 19:33:00,
2013-04-27 14:38:00,66.4,34.8,29.87,South,180,8.3,13.2,31,0.00,,,0.00,WUHU21623XXSP,2013-04-27 19:38:00,
2013-04-27 14:43:00,66.0,35.3,29.87,South,178,5.9,11.6,32,0.00,,,0.00,WUHU21623XXSP,2013-04-27 19:43:00,
2013-04-27 14:48:00,65.8,35.1,29.86,SSE,157,5.9,12.8,32,0.00,,,0.00,WUHU21623XXSP,2013-04-27 19:48:00,
2013-04-27 14:53:00,66.0,35.3,29.86,South,180,6.7,12.8,32,0.00,,,0.00,WUHU21623XXSP,2013-04-27 19:53:00,
2013-04-27 14:58:00,65.7,34.9,29.86,SSE,155,8.0,10.7,32,0.00,,,0.00,WUHU21623XXSP,2013-04-27 19:58:00,
2013-04-27 15:03:00,65.7,34.9,29.86,SSE,150,6.6,10.7,32,0.00,,,0.00,WUHU21623XXSP,2013-04-27 20:03:00,
2013-04-27 15:08:00,66.0,35.3,29.86,SSW,202,6.3,13.2,32,0.00,,,0.00,WUHU21623XXSP,2013-04-27 20:08:00,
2013-04-27 15:13:00,66.7,35.9,29.86,SSE,157,6.9,13.2,32,0.00,,,0.00,WUHU21623XXSP,2013-04-27 20:13:00,
2013-04-27 15:18:00,66.7,35.1,29.86,SSE,163,7.0,10.3,31,0.00,,,0.00,WUHU21623XXSP,2013-04-27 20:18:00,
2013-04-27 15:23:00,66.7,35.1,29.85,SSW,202,7.8,10.3,31,0.00,,,0.00,WUHU21623XXSP,2013-04-27 20:23:00,
2013-04-27 15:28:00,66.9,35.3,29.85,SE,135,7.8,11.2,31,0.00,,,0.00,WUHU21623XXSP,2013-04-27 20:28:00,
2013-04-27 15:33:00,66.6,35.0,29.85,SSW,193,4.8,12.1,31,0.00,,,0.00,WUHU21623XXSP,2013-04-27 20:33:00,
2013-04-27 15:38:00,66.6,35.0,29.85,South,176,8.6,12.1,31,0.00,,,0.00,WUHU21623XXSP,2013-04-27 20:38:00,
2013-04-27 15:43:00,66.9,34.6,29.85,SSW,196,7.9,13.4,30,0.00,,,0.00,WUHU21623XXSP,2013-04-27 20:43:00,
2013-04-27 15:48:00,66.7,35.1,29.85,SSE,162,6.1,13.4,31,0.00,,,0.00,WUHU21623XXSP,2013-04-27 20:48:00,
2013-04-27 15:53:00,66.6,35.0,29.85,South,190,7.5,11.2,31,0.00,,,0.00,WUHU21623XXSP,2013-04-27 20:53:00,
2013-04-27 15:58:00,66.7,35.1,29.84,WSW,247,8.9,12.1,31,0.00,,,0.00,WUHU21623XXSP,2013-04-27 20:58:00,
2013-04-27 16:03:00,66.9,34.6,29.84,WSW,247,8.1,12.1,30,0.00,,,0.00,WUHU21623XXSP,2013-04-27 21:03:00,
2013-04-27 16:08:00,67.1,34.7,29.84,SSW,199,6.0,10.3,30,0.00,,,0.00,WUHU21623XXSP,2013-04-27 21:08:00,
2013-04-27 16:13:00,67.6,35.1,29.84,South,180,7.2,10.3,30,0.00,,,0.00,WUHU21623XXSP,2013-04-27 21:13:00,
2013-04-27 16:18:00,67.6,35.1,29.83,SSE,168,6.4,8.9,30,0.00,,,0.00,WUHU21623XXSP,2013-04-27 21:18:00,
2013-04-27 16:23:00,67.6,35.1,29.83,South,180,8.3,8.9,30,0.00,,,0.00,WUHU21623XXSP,2013-04-27 21:23:00,
2013-04-27 16:28:00,67.3,34.8,29.83,SSW,193,7.0,9.6,30,0.00,,,0.00,WUHU21623XXSP,2013-04-27 21:28:00,
2013-04-27 16:33:00,67.3,34.8,29.83,South,180,7.6,9.6,30,0.00,,,0.00,WUHU21623XXSP,2013-04-27 21:33:00,
2013-04-27 16:38:00,67.5,35.0,29.83,WSW,247,8.5,9.6,30,0.00,,,0.00,WUHU21623XXSP,2013-04-27 21:38:00,
2013-04-27 16:43:00,67.1,34.7,29.83,WSW,247,10.5,13.4,30,0.00,,,0.00,WUHU21623XXSP,2013-04-27 21:43:00,
2013-04-27 16:48:00,67.3,34.8,29.83,WSW,241,5.7,13.4,30,0.00,,,0.00,WUHU21623XXSP,2013-04-27 21:48:00,
2013-04-27 16:53:00,67.3,34.8,29.82,WSW,247,5.3,11.0,30,0.00,,,0.00,WUHU21623XXSP,2013-04-27 21:53:00,
2013-04-27 16:58:00,67.1,34.7,29.82,WSW,247,7.8,15.2,30,0.00,,,0.00,WUHU21623XXSP,2013-04-27 21:58:00,
2013-04-27 17:03:00,67.1,34.7,29.82,WSW,247,7.7,15.2,30,0.00,,,0.00,WUHU21623XXSP,2013-04-27 22:03:00,
2013-04-27 17:08:00,66.9,34.6,29.82,WSW,247,11.2,11.6,30,0.00,,,0.00,WUHU21623XXSP,2013-04-27 22:08:00,
2013-04-27 17:13:00,66.9,34.6,29.82,WSW,247,7.7,13.2,30,0.00,,,0.00,WUHU21623XXSP,2013-04-27 22:13:00,
2013-04-27 17:18:00,66.7,34.4,29.82,WSW,247,9.2,13.2,30,0.00,,,0.00,WUHU21623XXSP,2013-04-27 22:18:00,
2013-04-27 17:23:00,66.6,34.3,29.81,WSW,247,7.4,12.1,30,0.00,,,0.00,WUHU21623XXSP,2013-04-27 22:23:00,
2013-04-27 17:28:00,66.7,34.4,29.81,WSW,247,6.7,8.7,30,0.00,,,0.00,WUHU21623XXSP,2013-04-27 22:28:00,
2013-04-27 17:33:00,66.4,34.1,29.81,WSW,247,7.4,11.4,30,0.00,,,0.00,WUHU21623XXSP,2013-04-27 22:33:00,
2013-04-27 17:38:00,66.0,34.5,29.81,WSW,247,6.5,11.4,31,0.00,,,0.00,WUHU21623XXSP,2013-04-27 22:38:00,
2013-04-27 17:43:00,66.0,34.5,29.80,WSW,247,7.8,11.2,31,0.00,,,0.00,WUHU21623XXSP,2013-04-27 22:43:00,
2013-04-27 17:48:00,65.7,34.2,29.80,WSW,247,8.1,11.4,31,0.00,,,0.00,WUHU21623XXSP,2013-04-27 22:48:00,
2013-04-27 17:53:00,65.3,34.6,29.80,WSW,247,6.4,11.4,32,0.00,,,0.00,WUHU21623XXSP,2013-04-27 22:53:00,
2013-04-27 17:58:00,65.3,33.9,29.80,South,169,7.9,9.4,31,0.00,,,0.00,WUHU21623XXSP,2013-04-27 22:58:00,
2013-04-27 18:03:00,65.3,33.9,29.80,South,189,8.3,12.5,31,0.00,,,0.00,WUHU21623XXSP,2013-04-27 23:03:00,
2013-04-27 18:08:00,64.8,33.4,29.80,SSE,166,9.1,17.2,31,0.00,,,0.00,WUHU21623XXSP,2013-04-27 23:08:00,
2013-04-27 18:13:00,64.6,34.0,29.80,South,180,8.7,17.2,32,0.00,,,0.00,WUHU21623XXSP,2013-04-27 23:13:00,
2013-04-27 18:18:00,64.4,33.8,29.80,South,169,4.6,13.2,32,0.00,,,0.00,WUHU21623XXSP,2013-04-27 23:18:00,
2013-04-27 18:23:00,64.0,33.5,29.80,SSW,202,7.8,8.5,32,0.00,,,0.00,WUHU21623XXSP,2013-04-27 23:23:00,
2013-04-27 18:28:00,64.0,33.5,29.80,SE,135,7.2,8.5,32,0.00,,,0.00,WUHU21623XXSP,2013-04-27 23:28:00,
2013-04-27 18:33:00,63.7,33.2,29.79,South,180,7.4,9.2,32,0.00,,,0.00,WUHU21623XXSP,2013-04-27 23:33:00,
2013-04-27 18:38:00,63.7,33.2,29.79,SE,135,7.6,10.1,32,0.00,,,0.00,WUHU21623XXSP,2013-04-27 23:38:00,
2013-04-27 18:43:00,63.1,33.4,29.79,SSE,160,5.4,10.1,33,0.00,,,0.00,WUHU21623XXSP,2013-04-27 23:43:00,
2013-04-27 18:48:00,63.1,33.4,29.79,SSE,157,7.2,8.3,33,0.00,,,0.00,WUHU21623XXSP,2013-04-27 23:48:00,
2013-04-27 18:53:00,63.3,33.5,29.79,SSE,158,6.0,8.1,33,0.00,,,0.00,WUHU21623XXSP,2013-04-27 23:53:00,
2013-04-27 18:58:00,62.8,33.1,29.78,South,180,7.2,7.6,33,0.00,,,0.00,WUHU21623XXSP,2013-04-27 23:58:00,
2013-04-27 19:03:00,62.4,32.7,29.79,South,175,3.5,7.8,33,0.00,,,0.00,WUHU21623XXSP,2013-04-28 00:03:00,
2013-04-27 19:08:00,62.4,33.5,29.79,SSW,202,7.2,8.3,34,0.00,,,0.00,WUHU21623XXSP,2013-04-28 00:08:00,
2013-04-27 19:13:00,62.2,33.3,29.78,SSE,157,3.4,8.3,34,0.00,,,0.00,WUHU21623XXSP,2013-04-28 00:13:00,
2013-04-27 19:18:00,61.7,32.8,29.78,South,176,4.2,8.3,34,0.00,,,0.00,WUHU21623XXSP,2013-04-28 00:18:00,
2013-04-27 19:23:00,61.7,32.8,29.78,South,169,4.5,7.6,34,0.00,,,0.00,WUHU21623XXSP,2013-04-28 00:23:00,
2013-04-27 19:28:00,61.5,33.4,29.78,SSE,155,3.3,7.6,35,0.00,,,0.00,WUHU21623XXSP,2013-04-28 00:28:00,
2013-04-27 19:33:00,61.3,33.2,29.78,SSE,157,3.2,7.6,35,0.00,,,0.00,WUHU21623XXSP,2013-04-28 00:33:00,
2013-04-27 19:38:00,61.3,33.2,29.78,SSE,150,3.3,5.6,35,0.00,,,0.00,WUHU21623XXSP,2013-04-28 00:38:00,
2013-04-27 19:43:00,61.0,32.9,29.78,SSE,157,3.4,8.5,35,0.00,,,0.00,WUHU21623XXSP,2013-04-28 00:43:00,
2013-04-27 19:48:00,60.6,32.6,29.78,SSE,157,4.7,8.5,35,0.00,,,0.00,WUHU21623XXSP,2013-04-28 00:48:00,
2013-04-27 19:53:00,60.6,32.6,29.78,SSE,168,4.9,8.1,35,0.00,,,0.00,WUHU21623XXSP,2013-04-28 00:53:00,
2013-04-27 19:58:00,60.4,33.1,29.78,SSE,157,4.0,8.1,36,0.00,,,0.00,WUHU21623XXSP,2013-04-28 00:58:00,
2013-04-27 20:03:00,60.1,32.8,29.78,SSE,157,6.3,6.3,36,0.00,,,0.00,WUHU21623XXSP,2013-04-28 01:03:00,
2013-04-27 20:08:00,59.7,32.5,29.78,SSE,157,4.7,6.3,36,0.00,,,0.00,WUHU21623XXSP,2013-04-28 01:08:00,
2013-04-27 20:13:00,59.5,33.1,29.78,SSE,157,3.8,6.3,37,0.00,,,0.00,WUHU21623XXSP,2013-04-28 01:13:00,
2013-04-27 20:18:00,58.8,32.4,29.78,SSE,157,5.8,6.5,37,0.00,,,0.00,WUHU21623XXSP,2013-04-28 01:18:00,
2013-04-27 20:23:00,59.2,32.7,29.77,SSE,157,5.8,6.9,37,0.00,,,0.00,WUHU21623XXSP,2013-04-28 01:23:00,
2013-04-27 20:28:00,58.8,32.4,29.78,SSE,159,4.8,7.6,37,0.00,,,0.00,WUHU21623XXSP,2013-04-28 01:28:00,
2013-04-27 20:33:00,58.8,32.4,29.78,SSE,157,4.5,7.6,37,0.00,,,0.00,WUHU21623XXSP,2013-04-28 01:33:00,
2013-04-27 20:38:00,58.8,32.4,29.78,SSE,157,5.1,6.9,37,0.00,,,0.00,WUHU21623XXSP,2013-04-28 01:38:00,
2013-04-27 20:43:00,58.6,32.3,29.78,SSE,157,4.7,6.9,37,0.00,,,0.00,WUHU21623XXSP,2013-04-28 01:43:00,
2013-04-27 20:48:00,58.6,32.3,29.78,SSE,161,3.9,6.0,37,0.00,,,0.00,WUHU21623XXSP,2013-04-28 01:48:00,
2013-04-27 20:53:00,58.3,31.9,29.78,SSE,166,3.4,6.0,37,0.00,,,0.00,WUHU21623XXSP,2013-04-28 01:53:00,
2013-04-27 20:58:00,58.3,31.9,29.78,SSE,157,4.4,8.1,37,0.00,,,0.00,WUHU21623XXSP,2013-04-28 01:58:00,
2013-04-27 21:02:00,58.3,31.9,29.78,SSE,157,4.3,8.7,37,0.00,,,0.00,WUHU21623XXSP,2013-04-28 02:02:00,
2013-04-27 21:08:00,58.1,31.8,29.78,SSE,165,4.2,8.7,37,0.00,,,0.00,WUHU21623XXSP,2013-04-28 02:08:00,
2013-04-27 21:12:00,57.9,31.6,29.78,South,170,3.7,7.6,37,0.00,,,0.00,WUHU21623XXSP,2013-04-28 02:12:00,
2013-04-27 21:17:00,57.7,32.2,29.78,SSE,157,3.8,6.7,38,0.00,,,0.00,WUHU21623XXSP,2013-04-28 02:17:00,
2013-04-27 21:23:00,57.7,31.5,29.78,SSE,161,4.7,6.0,37,0.00,,,0.00,WUHU21623XXSP,2013-04-28 02:23:00,
2013-04-27 21:28:00,57.7,32.2,29.78,South,180,7.4,7.4,38,0.00,,,0.00,WUHU21623XXSP,2013-04-28 02:28:00,
2013-04-27 21:33:00,57.9,31.6,29.78,SSE,160,3.9,8.3,37,0.00,,,0.00,WUHU21623XXSP,2013-04-28 02:33:00,
2013-04-27 21:38:00,57.6,31.3,29.78,SSE,157,6.0,8.3,37,0.00,,,0.00,WUHU21623XXSP,2013-04-28 02:38:00,
2013-04-27 21:43:00,57.7,31.5,29.78,SE,145,4.1,7.4,37,0.00,,,0.00,WUHU21623XXSP,2013-04-28 02:43:00,
2013-04-27 21:47:00,57.0,31.5,29.77,SSE,157,3.8,7.2,38,0.00,,,0.00,WUHU21623XXSP,2013-04-28 02:47:00,
2013-04-27 21:52:00,57.0,31.5,29.77,SSE,157,5.6,6.9,38,0.00,,,0.00,WUHU21623XXSP,2013-04-28 02:52:00,
2013-04-27 21:57:00,56.8,31.4,29.77,SSE,157,5.4,7.6,38,0.00,,,0.00,WUHU21623XXSP,2013-04-28 02:57:00,
2013-04-27 22:02:00,56.8,31.4,29.77,SSE,156,4.3,8.3,38,0.00,,,0.00,WUHU21623XXSP,2013-04-28 03:02:00,
2013-04-27 22:07:00,56.5,31.0,29.77,SSE,158,5.0,8.3,38,0.00,,,0.00,WUHU21623XXSP,2013-04-28 03:07:00,
2013-04-27 22:13:00,56.3,31.6,29.77,SSE,156,4.3,8.1,39,0.00,,,0.00,WUHU21623XXSP,2013-04-28 03:13:00,
2013-04-27 22:17:00,55.9,31.2,29.77,SSE,157,4.3,8.1,39,0.00,,,0.00,WUHU21623XXSP,2013-04-28 03:17:00,
2013-04-27 22:23:00,55.9,31.2,29.77,SSW,202,5.4,6.7,39,0.00,,,0.00,WUHU21623XXSP,2013-04-28 03:23:00,
2013-04-27 22:28:00,55.9,31.2,29.77,SE,140,3.4,11.4,39,0.00,,,0.00,WUHU21623XXSP,2013-04-28 03:28:00,
2013-04-27 22:33:00,55.4,30.8,29.76,SSE,163,4.5,11.4,39,0.00,,,0.00,WUHU21623XXSP,2013-04-28 03:33:00,
2013-04-27 22:38:00,55.2,31.3,29.77,SSE,160,3.8,9.6,40,0.00,,,0.00,WUHU21623XXSP,2013-04-28 03:38:00,
2013-04-27 22:43:00,55.0,31.1,29.76,SSE,157,4.3,8.7,40,0.00,,,0.00,WUHU21623XXSP,2013-04-28 03:43:00,
2013-04-27 22:48:00,55.0,31.1,29.76,SSE,157,4.7,5.6,40,0.00,,,0.00,WUHU21623XXSP,2013-04-28 03:48:00,
2013-04-27 22:53:00,54.5,31.2,29.77,SSE,157,3.1,6.0,41,0.00,,,0.00,WUHU21623XXSP,2013-04-28 03:53:00,
2013-04-27 22:58:00,54.3,31.0,29.76,SSE,157,3.2,6.0,41,0.00,,,0.00,WUHU21623XXSP,2013-04-28 03:58:00,
2013-04-27 23:01:00,54.3,31.0,29.76,SSE,168,4.4,6.3,41,0.00,,,0.00,WUHU21623XXSP,2013-04-28 04:01:00,
2013-04-27 23:06:00,54.1,31.4,29.76,SSE,163,3.7,6.3,42,0.00,,,0.00,WUHU21623XXSP,2013-04-28 04:06:00,
2013-04-27 23:11:00,54.3,31.6,29.76,SSE,164,3.4,6.3,42,0.00,,,0.00,WUHU21623XXSP,2013-04-28 04:11:00,
2013-04-27 23:16:00,54.0,31.3,29.76,SSE,168,5.0,6.9,42,0.00,,,0.00,WUHU21623XXSP,2013-04-28 04:16:00,
2013-04-27 23:21:00,54.0,31.3,29.75,SSE,157,3.7,7.8,42,0.00,,,0.00,WUHU21623XXSP,2013-04-28 04:21:00,
2013-04-27 23:26:00,53.8,31.7,29.75,SSE,163,4.4,7.8,43,0.00,,,0.00,WUHU21623XXSP,2013-04-28 04:26:00,
2013-04-27 23:31:00,53.4,31.4,29.75,SE,135,5.4,6.9,43,0.00,,,0.00,WUHU21623XXSP,2013-04-28 04:31:00,
2013-04-27 23:36:00,53.2,31.2,29.75,SSE,165,3.8,7.4,43,0.00,,,0.00,WUHU21623XXSP,2013-04-28 04:36:00,
2013-04-27 23:41:00,53.6,31.5,29.75,SSE,168,4.9,7.4,43,0.00,,,0.00,WUHU21623XXSP,2013-04-28 04:41:00,
2013-04-27 23:46:00,53.4,31.4,29.75,SSE,157,4.8,7.4,43,0.00,,,0.00,WUHU21623XXSP,2013-04-28 04:46:00,
2013-04-27 23:51:00,53.4,31.4,29.75,SSE,165,5.1,8.5,43,0.00,,,0.00,WUHU21623XXSP,2013-04-28 04:51:00,
2013-04-27 23:56:00,53.4,31.4,29.75,South,180,8.5,8.5,43,0.00,,,0.00,WUHU21623XXSP,2013-04-28 04:56:00,